CDC8987 ZSHC-ZSLI

Flight info

Callsign CDC8987
Flight time 0h 36m
Altitude 15700
Route UGAG5E UGAGO A470 OSPAM OSPA7X
Aircraft A21N/M-SDE2E3FGHIRWXY/LB1

Departure

Time 2026-04-16 07:13
Airport Hangzhou Xiaoshan International Airport (ZSHC)

Arrival

Time 2026-04-16 07:49
Airport Lishui Airport (ZSLI)
Time Latitude Longitude Altitude Speed Heading
2026-04-16 06:52 30.23924 120.43467 28 ft 0 kts 332°
2026-04-16 07:00 30.23915 120.43472 29 ft 2 kts 332°
2026-04-16 07:00 30.23902 120.43480 29 ft 2 kts 332°
2026-04-16 07:01 30.23878 120.43495 29 ft 2 kts 337°
2026-04-16 07:01 30.23863 120.43497 29 ft 2 kts
2026-04-16 07:01 30.23848 120.43493 29 ft 2 kts 30°
2026-04-16 07:01 30.23834 120.43490 29 ft 2 kts 343°
2026-04-16 07:02 30.23821 120.43497 29 ft 1 kts 328°
2026-04-16 07:02 30.23817 120.43501 29 ft 0 kts 331°
2026-04-16 07:04 30.23822 120.43497 29 ft 3 kts 331°
2026-04-16 07:04 30.23870 120.43516 29 ft 12 kts 59°
2026-04-16 07:04 30.23911 120.43610 29 ft 13 kts 63°
2026-04-16 07:05 30.23917 120.43705 29 ft 12 kts 142°
2026-04-16 07:05 30.23835 120.43755 29 ft 13 kts 153°
2026-04-16 07:05 30.23751 120.43803 29 ft 13 kts 152°
2026-04-16 07:05 30.23663 120.43856 29 ft 14 kts 152°
2026-04-16 07:06 30.23573 120.43909 29 ft 14 kts 153°
2026-04-16 07:06 30.23506 120.43870 29 ft 12 kts 241°
2026-04-16 07:06 30.23464 120.43779 29 ft 13 kts 243°
2026-04-16 07:06 30.23422 120.43681 29 ft 13 kts 242°
2026-04-16 07:07 30.23378 120.43581 29 ft 14 kts 242°
2026-04-16 07:07 30.23332 120.43478 29 ft 14 kts 243°
2026-04-16 07:07 30.23284 120.43370 29 ft 15 kts 242°
2026-04-16 07:07 30.23236 120.43261 29 ft 15 kts 243°
2026-04-16 07:08 30.23183 120.43160 29 ft 13 kts 211°
2026-04-16 07:08 30.23120 120.43157 29 ft 8 kts 200°
2026-04-16 07:08 30.23081 120.43098 29 ft 11 kts 242°
2026-04-16 07:08 30.23036 120.42993 29 ft 15 kts 243°
2026-04-16 07:09 30.22970 120.42938 29 ft 11 kts 163°
2026-04-16 07:09 30.22905 120.42904 29 ft 11 kts 239°
2026-04-16 07:09 30.22859 120.42802 29 ft 18 kts 243°
2026-04-16 07:09 30.22796 120.42658 29 ft 20 kts 243°
2026-04-16 07:10 30.22733 120.42516 29 ft 19 kts 243°
2026-04-16 07:10 30.22671 120.42377 29 ft 19 kts 243°
2026-04-16 07:10 30.22610 120.42240 29 ft 19 kts 242°
2026-04-16 07:10 30.22551 120.42104 29 ft 18 kts 243°
2026-04-16 07:11 30.22490 120.41969 29 ft 18 kts 243°
2026-04-16 07:11 30.22433 120.41837 29 ft 18 kts 242°
2026-04-16 07:11 30.22380 120.41727 29 ft 12 kts 222°
2026-04-16 07:11 30.22299 120.41738 29 ft 13 kts 151°
2026-04-16 07:12 30.22231 120.41779 29 ft 2 kts 152°
2026-04-16 07:12 30.22227 120.41798 29 ft 3 kts 83°
2026-04-16 07:12 30.22236 120.41827 29 ft 4 kts 66°
2026-04-16 07:12 30.22310 120.41995 29 ft 58 kts 63°
2026-04-16 07:13 30.22617 120.42690 29 ft 132 kts 63°
2026-04-16 07:13 30.23116 120.43806 326 ft 166 kts 63°
2026-04-16 07:13 30.23637 120.44971 1094 ft 168 kts 64°
2026-04-16 07:13 30.24025 120.46259 1925 ft 169 kts 86°
2026-04-16 07:14 30.23943 120.47692 2583 ft 180 kts 98°
2026-04-16 07:14 30.23701 120.49721 3455 ft 197 kts 99°
2026-04-16 07:14 30.23566 120.50849 3851 ft 208 kts 99°
2026-04-16 07:14 30.23358 120.52668 4435 ft 226 kts 98°
2026-04-16 07:15 30.23137 120.54698 4924 ft 251 kts 98°
2026-04-16 07:15 30.22662 120.56827 5506 ft 270 kts 121°
2026-04-16 07:15 30.21258 120.58467 6191 ft 279 kts 152°
2026-04-16 07:15 30.19399 120.59525 7117 ft 284 kts 157°
2026-04-16 07:16 30.17431 120.60374 8052 ft 283 kts 175°
2026-04-16 07:16 30.15398 120.60140 8974 ft 278 kts 203°
2026-04-16 07:16 30.13728 120.58897 9886 ft 275 kts 228°
2026-04-16 07:16 30.12674 120.57012 10737 ft 276 kts 244°
2026-04-16 07:17 30.11815 120.55008 11536 ft 279 kts 244°
2026-04-16 07:17 30.10947 120.52998 12346 ft 282 kts 244°
2026-04-16 07:17 30.10073 120.50996 13144 ft 284 kts 243°
2026-04-16 07:17 30.09173 120.48959 13967 ft 286 kts 243°
2026-04-16 07:18 30.08280 120.46943 14694 ft 288 kts 243°
2026-04-16 07:18 30.07357 120.44865 15249 ft 293 kts 243°
2026-04-16 07:18 30.06395 120.42708 15535 ft 294 kts 244°
2026-04-16 07:18 30.05426 120.40528 15566 ft 294 kts 244°
2026-04-16 07:19 30.04450 120.38333 15571 ft 296 kts 244°
2026-04-16 07:19 30.03448 120.36083 15571 ft 322 kts 243°
2026-04-16 07:19 30.02330 120.33579 15583 ft 349 kts 243°
2026-04-16 07:19 30.01133 120.30904 15572 ft 374 kts 244°
2026-04-16 07:20 29.99850 120.28037 15566 ft 396 kts 243°
2026-04-16 07:20 29.98495 120.25087 15566 ft 403 kts 242°
2026-04-16 07:20 29.97102 120.22154 15568 ft 404 kts 242°
2026-04-16 07:20 29.95683 120.19176 15564 ft 404 kts 243°
2026-04-16 07:21 29.94284 120.16228 15564 ft 404 kts 242°
2026-04-16 07:21 29.92906 120.13322 15567 ft 404 kts 242°
2026-04-16 07:21 29.91537 120.10433 15571 ft 405 kts 242°
2026-04-16 07:21 29.90140 120.07488 15573 ft 405 kts 242°
2026-04-16 07:22 29.88749 120.04562 15582 ft 404 kts 242°
2026-04-16 07:22 29.87364 120.01644 15583 ft 405 kts 242°
2026-04-16 07:22 29.85938 119.98787 15587 ft 405 kts 240°
2026-04-16 07:22 29.84328 119.95956 15586 ft 405 kts 236°
2026-04-16 07:23 29.82627 119.93316 15591 ft 406 kts 233°
2026-04-16 07:23 29.80830 119.90738 15596 ft 406 kts 233°
2026-04-16 07:23 29.79053 119.88210 15600 ft 406 kts 233°
2026-04-16 07:23 29.77239 119.85632 15607 ft 406 kts 232°
2026-04-16 07:24 29.75439 119.83073 15609 ft 406 kts 232°
2026-04-16 07:24 29.73650 119.80530 15610 ft 406 kts 232°
2026-04-16 07:24 29.71848 119.77969 15614 ft 405 kts 233°
2026-04-16 07:24 29.70053 119.75420 15612 ft 405 kts 233°
2026-04-16 07:25 29.68274 119.72895 15611 ft 405 kts 233°
2026-04-16 07:25 29.66465 119.70329 15609 ft 405 kts 233°
2026-04-16 07:25 29.64624 119.67870 15597 ft 406 kts 226°
2026-04-16 07:25 29.62278 119.66009 15598 ft 412 kts 210°
2026-04-16 07:26 29.59506 119.65028 15599 ft 418 kts 192°
2026-04-16 07:26 29.56535 119.64846 15611 ft 423 kts 185°
2026-04-16 07:26 29.53567 119.64774 15597 ft 422 kts 185°
2026-04-16 07:26 29.50590 119.64623 15595 ft 422 kts 187°
2026-04-16 07:27 29.47664 119.64443 15592 ft 421 kts 187°
2026-04-16 07:27 29.44668 119.64251 15585 ft 422 kts 186°
2026-04-16 07:27 29.41697 119.64065 15581 ft 421 kts 187°
2026-04-16 07:27 29.38750 119.63882 15579 ft 422 kts 187°
2026-04-16 07:28 29.35791 119.63699 15579 ft 422 kts 186°
2026-04-16 07:28 29.32852 119.63517 15574 ft 421 kts 187°
2026-04-16 07:28 29.29868 119.63334 15571 ft 421 kts 187°
2026-04-16 07:28 29.26933 119.63155 15568 ft 421 kts 187°
2026-04-16 07:29 29.24002 119.62976 15568 ft 420 kts 187°
2026-04-16 07:29 29.21071 119.62795 15569 ft 420 kts 186°
2026-04-16 07:29 29.18108 119.62617 15567 ft 420 kts 187°
2026-04-16 07:29 29.15159 119.62436 15566 ft 420 kts 186°
2026-04-16 07:30 29.12243 119.62258 15567 ft 420 kts 187°
2026-04-16 07:30 29.09285 119.62081 15563 ft 420 kts 187°
2026-04-16 07:30 29.06335 119.61897 15564 ft 421 kts 187°
2026-04-16 07:30 29.03438 119.61716 15566 ft 421 kts 187°
2026-04-16 07:31 29.00487 119.61533 15561 ft 421 kts 187°
2026-04-16 07:31 28.97565 119.61352 15352 ft 419 kts 187°
2026-04-16 07:31 28.94656 119.61171 15124 ft 417 kts 186°
2026-04-16 07:31 28.91734 119.60989 14893 ft 416 kts 186°
2026-04-16 07:32 28.90607 119.60919 14803 ft 416 kts 186°
2026-04-16 07:33 28.90404 119.60906 14787 ft 416 kts 187°
2026-04-16 07:33 28.88888 119.60813 14697 ft 416 kts 187°
2026-04-16 07:33 28.85999 119.60633 14472 ft 415 kts 187°
2026-04-16 07:34 28.83137 119.60455 14202 ft 414 kts 187°
2026-04-16 07:34 28.80258 119.60275 13798 ft 412 kts 187°
2026-04-16 07:34 28.77423 119.60100 13299 ft 408 kts 186°
2026-04-16 07:34 28.76465 119.60040 13114 ft 406 kts 186°
2026-04-16 07:35 28.73663 119.59866 12516 ft 403 kts 186°
2026-04-16 07:35 28.70885 119.59695 12046 ft 394 kts 186°
2026-04-16 07:35 28.68149 119.59528 11666 ft 382 kts 186°
2026-04-16 07:35 28.65545 119.59373 11411 ft 356 kts 186°
2026-04-16 07:36 28.63088 119.59226 11152 ft 329 kts 187°
2026-04-16 07:36 28.60857 119.59095 10923 ft 305 kts 187°
2026-04-16 07:36 28.58723 119.58965 10715 ft 285 kts 188°
2026-04-16 07:36 28.56710 119.58837 10522 ft 279 kts 188°
2026-04-16 07:37 28.54734 119.58713 10317 ft 266 kts 189°
2026-04-16 07:37 28.52836 119.58594 10191 ft 252 kts 189°
2026-04-16 07:37 28.51045 119.58484 10061 ft 240 kts 189°
2026-04-16 07:37 28.50502 119.58451 10025 ft 236 kts 189°
2026-04-16 07:38 28.48844 119.58350 9917 ft 228 kts 189°
2026-04-16 07:38 28.47212 119.58243 9665 ft 229 kts 189°
2026-04-16 07:38 28.45620 119.58143 9428 ft 225 kts 189°
2026-04-16 07:38 28.43984 119.58040 9124 ft 224 kts 189°
2026-04-16 07:39 28.42392 119.57940 8819 ft 224 kts 189°
2026-04-16 07:39 28.40790 119.57843 8744 ft 223 kts 189°
2026-04-16 07:39 28.39170 119.57745 8710 ft 224 kts 189°
2026-04-16 07:39 28.37546 119.57597 8698 ft 221 kts 195°
2026-04-16 07:40 28.36023 119.57149 8586 ft 216 kts 205°
2026-04-16 07:40 28.34603 119.56532 8398 ft 212 kts 207°
2026-04-16 07:40 28.33188 119.55886 8156 ft 206 kts 207°
2026-04-16 07:40 28.31813 119.55262 7852 ft 201 kts 207°
2026-04-16 07:41 28.30463 119.54651 7517 ft 196 kts 206°
2026-04-16 07:41 28.29148 119.54060 7237 ft 189 kts 206°
2026-04-16 07:41 28.27880 119.53491 6937 ft 184 kts 206°
2026-04-16 07:41 28.26648 119.52940 6637 ft 182 kts 204°
2026-04-16 07:42 28.25308 119.52767 6322 ft 190 kts 176°
2026-04-16 07:42 28.24014 119.53387 6058 ft 196 kts 152°
2026-04-16 07:42 28.22831 119.54322 5813 ft 196 kts 148°
2026-04-16 07:42 28.21725 119.55358 5546 ft 197 kts 133°
2026-04-16 07:43 28.21219 119.56799 5332 ft 202 kts 94°
2026-04-16 07:43 28.21534 119.58411 5238 ft 204 kts 66°
2026-04-16 07:43 28.22273 119.59847 5095 ft 202 kts 55°
2026-04-16 07:43 28.23156 119.61203 4917 ft 202 kts 53°
2026-04-16 07:44 28.24025 119.62508 4643 ft 196 kts 53°
2026-04-16 07:44 28.24869 119.63811 4374 ft 189 kts 54°
2026-04-16 07:44 28.25647 119.65044 4119 ft 182 kts 56°
2026-04-16 07:44 28.26385 119.66233 3877 ft 174 kts 57°
2026-04-16 07:45 28.27069 119.67343 3649 ft 166 kts 57°
2026-04-16 07:45 28.27739 119.68430 3450 ft 156 kts 58°
2026-04-16 07:45 28.28377 119.69468 3244 ft 146 kts 57°
2026-04-16 07:45 28.28995 119.70471 3041 ft 143 kts 58°
2026-04-16 07:46 28.29598 119.71451 2850 ft 142 kts 57°
2026-04-16 07:46 28.30192 119.72413 2661 ft 141 kts 57°
2026-04-16 07:46 28.30795 119.73387 2464 ft 141 kts 57°
2026-04-16 07:46 28.31388 119.74344 2270 ft 141 kts 57°
2026-04-16 07:47 28.31981 119.75300 2069 ft 140 kts 56°
2026-04-16 07:47 28.32565 119.76239 1875 ft 139 kts 57°
2026-04-16 07:47 28.33146 119.77177 1682 ft 138 kts 57°
2026-04-16 07:47 28.33721 119.78104 1492 ft 138 kts 56°
2026-04-16 07:48 28.34280 119.79005 1318 ft 138 kts 56°
2026-04-16 07:48 28.34839 119.79906 1135 ft 137 kts 55°
2026-04-16 07:48 28.35397 119.80801 954 ft 137 kts 56°
2026-04-16 07:48 28.35954 119.81701 765 ft 137 kts 54°
2026-04-16 07:49 28.36510 119.82594 595 ft 136 kts 55°
2026-04-16 07:49 28.37019 119.83415 562 ft 108 kts 55°
2026-04-16 07:49 28.37363 119.83969 561 ft 65 kts 55°
2026-04-16 07:49 28.37551 119.84272 561 ft 27 kts 54°
2026-04-16 07:50 28.37634 119.84335 560 ft 10 kts 35°
2026-04-16 07:50 28.37614 119.84370 561 ft 9 kts 215°
2026-04-16 07:50 28.37572 119.84306 561 ft 10 kts 236°
2026-04-16 07:50 28.37527 119.84233 561 ft 11 kts 235°
2026-04-16 07:51 28.37473 119.84146 561 ft 15 kts 234°
2026-04-16 07:51 28.37411 119.84046 561 ft 15 kts 236°
2026-04-16 07:51 28.37337 119.83927 561 ft 20 kts 236°
2026-04-16 07:51 28.37257 119.83794 561 ft 18 kts 246°
2026-04-16 07:52 28.37319 119.83682 561 ft 18 kts 326°
2026-04-16 07:52 28.37409 119.83609 561 ft 12 kts 318°
2026-04-16 07:52 28.37452 119.83571 561 ft 5 kts 326°
2026-04-16 07:52 28.37464 119.83562 561 ft 0 kts 324°